| time (UTC) | temp C | wind direction | speed KPH | gust KPH | rain 1hr cm | rain 24hr cm | rain mn cm | humidity % | barometer mb |
| 20260504081538 | 8 | 166 | 0.0 | 3.2 | 0.00 | 0.00 | 0.00 | 100 | 1006.8 |
| 20260504050015 | 7 | 162 | 0.0 | 8.0 | 0.00 | 0.00 | 0.00 | 100 | 1009.3 |
| 20260504044519 | 7 | 180 | 0.0 | 4.8 | 0.00 | 0.00 | 0.00 | 100 | 1009.4 |
| 20260504043012 | 7 | 167 | 1.6 | 4.8 | 0.00 | 0.00 | 0.00 | 100 | 1009.3 |
| 20260504041513 | 7 | 166 | 0.0 | 4.8 | 0.00 | 0.00 | 0.00 | 100 | 1009.4 |
| 20260504040013 | 7 | 161 | 1.6 | 4.8 | 0.00 | 0.00 | 0.00 | 100 | 1009.6 |
| 20260504034507 | 7 | 158 | 1.6 | 4.8 | 0.00 | 0.00 | 0.00 | 100 | 1009.8 |
| 20260504033011 | 7 | 176 | 3.2 | 9.7 | 0.00 | 0.00 | 0.00 | 100 | 1009.9 |
| 20260504031504 | 7 | 163 | 3.2 | 9.7 | 0.00 | 0.00 | 0.00 | 100 | 1010.0 |
| 20260504030005 | 8 | 159 | 4.8 | 9.7 | 0.00 | 0.00 | 0.00 | 100 | 1010.1 |
| 20260504024503 | 8 | 184 | 4.8 | 9.7 | 0.00 | 0.00 | 0.00 | 100 | 1010.2 |
| 20260504023002 | 8 | 157 | 3.2 | 14.5 | 0.00 | 0.00 | 0.00 | 100 | 1010.3 |
| 20260504021501 | 8 | 155 | 4.8 | 11.3 | 0.00 | 0.00 | 0.00 | 100 | 1010.2 |
| 20260504020001 | 8 | 165 | 4.8 | 14.5 | 0.00 | 0.00 | 0.00 | 100 | 1010.2 |
| 20260504014601 | 8 | 167 | 4.8 | 11.3 | 0.00 | 0.00 | 0.00 | 100 | 1010.2 |
| 20260504013116 | 8 | 165 | 6.4 | 12.9 | 0.00 | 0.00 | 0.00 | 100 | 1010.3 |
| 20260504011600 | 8 | 148 | 6.4 | 14.5 | 0.00 | 0.00 | 0.00 | 100 | 1010.3 |
| 20260504010105 | 8 | 188 | 8.0 | 16.1 | 0.00 | 0.00 | 0.00 | 100 | 1010.3 |
| 20260504004608 | 9 | 150 | 6.4 | 14.5 | 0.00 | 0.00 | 0.00 | 100 | 1010.5 |
| 20260504003054 | 9 | 161 | 4.8 | 11.3 | 0.00 | 0.00 | 0.00 | 100 | 1010.5 |
| 20260504001553 | 9 | 154 | 4.8 | 9.7 | 0.00 | 0.00 | 0.00 | 100 | 1010.6 |
| 20260504000051 | 10 | 143 | 8.0 | 16.1 | 0.00 | 0.00 | 0.00 | 100 | 1010.7 |
| 20260503234549 | 10 | 165 | 9.7 | 16.1 | 0.00 | 0.00 | 0.00 | 100 | 1010.9 |
| 20260503233048 | 10 | 148 | 8.0 | 17.7 | 0.00 | 0.00 | 0.00 | 100 | 1011.1 |
| 20260503231548 | 10 | 181 | 8.0 | 14.5 | 0.00 | 0.00 | 0.00 | 100 | 1011.2 |
| 20260503230048 | 10 | 163 | 12.9 | 24.1 | 0.00 | 0.00 | 0.00 | 100 | 1011.5 |
| 20260503224542 | 9 | 165 | 8.0 | 16.1 | 0.00 | 0.00 | 0.00 | 100 | 1011.7 |
| 20260503223041 | 9 | 169 | 9.7 | 16.1 | 0.00 | 0.00 | 0.00 | 100 | 1011.8 |
| 20260503221539 | 9 | 171 | 9.7 | 16.1 | 0.00 | 0.00 | 0.00 | 100 | 1011.9 |
| 20260503220038 | 8 | 159 | 6.4 | 17.7 | 0.00 | 0.00 | 0.00 | 100 | 1012.2 |
| 20260503214538 | 9 | 194 | 3.2 | 12.9 | 0.00 | 0.00 | 0.00 | 100 | 1012.1 |
| 20260503213035 | 9 | 155 | 6.4 | 14.5 | 0.00 | 0.00 | 0.00 | 100 | 1012.3 |
| 20260503211534 | 9 | 147 | 4.8 | 14.5 | 0.00 | 0.00 | 0.00 | 100 | 1012.3 |
| 20260503210034 | 10 | 147 | 3.2 | 12.9 | 0.00 | 0.00 | 0.00 | 100 | 1012.8 |
| 20260503204529 | 10 | 165 | 1.6 | 12.9 | 0.00 | 0.00 | 0.00 | 100 | 1013.3 |
| 20260503203128 | 10 | 253 | 6.4 | 16.1 | 0.00 | 0.00 | 0.00 | 100 | 1013.7 |
| 20260503201526 | 11 | 140 | 4.8 | 19.3 | 0.00 | 0.00 | 0.00 | 100 | 1014.0 |
| 20260503200025 | 12 | 109 | 6.4 | 27.4 | 0.00 | 0.00 | 0.00 | 100 | 1014.2 |
| 20260503194525 | 12 | 271 | 4.8 | 22.5 | 0.00 | 0.00 | 0.00 | 58 | 1014.1 |
| 20260503193023 | 14 | 259 | 6.4 | 22.5 | 0.00 | 0.00 | 0.00 | 31 | 1013.7 |
| 20260503191531 | 14 | 289 | 4.8 | 22.5 | 0.00 | 0.00 | 0.00 | 31 | 1013.8 |
| 20260503190026 | 15 | 275 | 4.8 | 19.3 | 0.00 | 0.00 | 0.00 | 29 | 1013.9 |
| 20260503184520 | 15 | 281 | 6.4 | 20.9 | 0.00 | 0.00 | 0.00 | 31 | 1013.9 |
| 20260503183018 | 15 | 204 | 8.0 | 25.7 | 0.00 | 0.00 | 0.00 | 30 | 1014.0 |
| 20260503181517 | 15 | 227 | 6.4 | 20.9 | 0.00 | 0.00 | 0.00 | 30 | 1014.2 |
| 20260503180015 | 15 | 296 | 3.2 | 25.7 | 0.00 | 0.00 | 0.00 | 30 | 1014.6 |
| 20260503174512 | 15 | 177 | 6.4 | 22.5 | 0.00 | 0.00 | 0.00 | 31 | 1014.8 |
| 20260503173012 | 15 | 282 | 8.0 | 22.5 | 0.00 | 0.00 | 0.00 | 29 | 1015.1 |
| 20260503171508 | 15 | 256 | 4.8 | 17.7 | 0.00 | 0.00 | 0.00 | 29 | 1015.3 |
| 20260503160115 | 14 | 238 | 6.4 | 16.1 | 0.00 | 0.00 | 0.00 | 36 | 1015.9 |